Wenatchee, WA
on Friday, December 28, 2012

Friday
Previous Day Next Day
Daily Summary
 ActualAverageRecord
Temperature
Mean Temperature °F 25°F  
Max Temperature 31°F 31°F 52°F (2011)
Min Temperature 28°F 20°F -16°F (1968)
Degree Days
Heating Degree Days 35 40  
Month to date heating degree days 886 1097  
Since 1 July heating degree days 2045 2979  
Cooling Degree Days 0 0  
Month to date cooling degree days 0 0  
Year to date cooling degree days 888 249  
Moisture
Dew Point 24°F   
Average Humidity 82    
Maximum Humidity 92    
Minimum Humidity 72    
Precipitation
Precipitation 0.00 in 0.07 in 0.37 in (1992)
Month to date precipitation 1.69 2.30  
Year to date precipitation 9.20 16.85  
Snow
Snow 0.00 in 0.60 in in ()
Month to date snowfall 15.1  
Since 1 July snowfall 23.0  
Snow Depth in   
Wind
Wind Speed 2 mph   
Max Wind Speed 8 mph   
Max Gust Speed 9 mph   
Visibility 10 miles   
Events     

Key: T is trace of precipitation, MM is missing value
Source: NWS Daily Summary
Time(PST)TemperatureDew PointHumidity Pressure Visibility Wind DirectionWind SpeedGust SpeedPrecipitationEvents Conditions
12:55 AM 28.9°F 26.1°F 89% 30.20 in 10.0 miles Calm Calm - N/A   Overcast
1:55 AM 28.9°F 25.0°F 85% 30.21 in 10.0 miles Calm Calm - N/A   Overcast
2:55 AM 28.9°F 25.0°F 85% 30.21 in 10.0 miles Calm Calm - N/A   Overcast
3:55 AM 28.9°F 25.0°F 85% 30.21 in 10.0 miles Calm Calm - N/A   Overcast
4:55 AM 28.9°F 25.0°F 85% 30.21 in 10.0 miles Calm Calm - N/A   Overcast
5:55 AM 28.9°F 26.1°F 89% 30.22 in 4.0 miles ENE 3.5 mph - N/A   Overcast
6:55 AM 28.9°F 26.1°F 89% 30.23 in 6.0 miles East 5.8 mph - N/A   Overcast
7:20 AM 28.4°F 24.8°F 86% 30.18 in 10.0 miles East 4.6 mph - N/A   Overcast
7:55 AM 28.9°F 25.0°F 85% 30.23 in 10.0 miles ESE 4.6 mph - N/A   Overcast
8:55 AM 28.9°F 25.0°F 85% 30.25 in 10.0 miles Calm Calm - N/A   Overcast
10:55 AM 30.9°F 24.1°F 76% 30.25 in 10.0 miles Calm Calm - N/A   Overcast
11:55 AM 30.9°F 24.1°F 76% 30.24 in 10.0 miles Variable 3.5 mph - N/A   Overcast
12:55 PM 28.9°F 21.9°F 75% 30.23 in 10.0 miles NE 6.9 mph - N/A   Overcast
1:55 PM 28.9°F 21.9°F 75% 30.24 in 10.0 miles NE 5.8 mph - N/A   Overcast
2:55 PM 30.0°F 23.0°F 75% 30.25 in 10.0 miles ENE 3.5 mph - N/A   Overcast
3:55 PM 28.9°F 23.0°F 78% 30.25 in 10.0 miles NE 5.8 mph - N/A   Overcast
4:55 PM 28.9°F 21.9°F 75% 30.26 in 10.0 miles ENE 4.6 mph - N/A   Overcast
5:55 PM 28.9°F 21.9°F 75% 30.26 in 10.0 miles NNE 6.9 mph - N/A   Overcast
6:55 PM 28.9°F 21.9°F 75% 30.26 in 10.0 miles Calm Calm - N/A   Overcast
7:05 PM 28.4°F 21.2°F 74% 30.22 in 10.0 miles SW 3.5 mph - N/A   Overcast
7:55 PM 28.0°F 23.0°F 81% 30.27 in 10.0 miles Calm Calm - N/A   Overcast
8:55 PM 28.0°F 23.0°F 81% 30.27 in 10.0 miles Calm Calm - N/A   Overcast
9:55 PM 28.0°F 23.0°F 81% 30.27 in 10.0 miles Calm Calm - N/A   Overcast
10:55 PM 28.0°F 23.0°F 81% 30.28 in 10.0 miles WNW 3.5 mph - N/A   Overcast
11:05 PM 28.4°F 23.0°F 80% 30.23 in 10.0 miles Calm Calm - N/A   Overcast
11:55 PM 28.9°F 24.1°F 82% 30.27 in 10.0 miles Calm Calm - N/A   Overcast
Moon Phase
Dec. 28 Jan. 04 Jan. 11 Jan. 18 Jan. 26
Sunrise:07:47 AM (PST) Moon Rise:05:03 PM (PST)12/28
Sunset:04:17 PM (PST) Moon Set:07:41 AM (PST)12/28

Copyright © 2014 The Weather Underground, Inc.